• In Netherlands
  • List of Countries
  • For 7 days
  • Water Temperature
  • Satellite Maps
  • Weather Map
  • Weather Widgets
  • user-avatar
    Login

    Hourly Weather Hrodna

    Today, 19 September, Tuesday

    Time Temperature Precipitation Wind Pressure Humidity
    00:00 +9°C° 0 mm 5 mps 749 mmHg 92%
    01:00 +8°C° 0 mm 5 mps 749 mmHg 93%
    02:00 +8°C° 0 mm 4 mps 749 mmHg 95%
    03:00 +7°C° 0 mm 4 mps 749 mmHg 96%
    04:00 +7°C° 0 mm 4 mps 750 mmHg 96%
    05:00 +8°C° 0 mm 3 mps 750 mmHg 97%
    06:00 +8°C° 0 mm 4 mps 750 mmHg 95%
    07:00 +8°C° 0 mm 4 mps 750 mmHg 93%
    08:00 +10°C° 0 mm 4 mps 750 mmHg 91%
    09:00 +11°C° 0 mm 4 mps 751 mmHg 83%
    10:00 +13°C° 0 mm 4 mps 751 mmHg 76%
    11:00 +15°C° 0 mm 4 mps 752 mmHg 69%
    12:00 +15°C° 0 mm 4 mps 752 mmHg 65%
    13:00 +17°C° 0 mm 4 mps 752 mmHg 62%
    14:00 +18°C° 0 mm 4 mps 752 mmHg 58%
    15:00 +17°C° 0 mm 3 mps 752 mmHg 61%
    16:00 +17°C° 0 mm 3 mps 752 mmHg 64%
    17:00 +17°C° 0 mm 2 mps 752 mmHg 67%
    18:00 +15°C° 0 mm 2 mps 752 mmHg 70%
    19:00 +14°C° 0 mm 2 mps 752 mmHg 74%
    20:00 +12°C° 0 mm 1 mps 752 mmHg 78%
    21:00 +12°C° 0 mm 1 mps 752 mmHg 79%
    22:00 +12°C° 0 mm 1 mps 752 mmHg 80%
    23:00 +11°C° 0 mm 1 mps 753 mmHg 82%

    Tomorrow, 20 September, Wednesday

    Time Temperature Precipitation Wind Pressure Humidity
    00:00 +11°C° 0 mm 1 mps 753 mmHg 83%
    01:00 +11°C° 0 mm 1 mps 753 mmHg 83%
    02:00 +10°C° 0 mm 1 mps 753 mmHg 84%
    03:00 +10°C° 0 mm 1 mps 753 mmHg 85%
    04:00 +10°C° 0 mm 1 mps 752 mmHg 85%
    05:00 +10°C° 0 mm 2 mps 752 mmHg 85%
    06:00 +10°C° 0.2 mm 2 mps 753 mmHg 86%
    07:00 +10°C° 0.2 mm 2 mps 753 mmHg 86%
    08:00 +12°C° 0.2 mm 2 mps 753 mmHg 87%
    09:00 +12°C° 0.1 mm 2 mps 753 mmHg 87%
    10:00 +12°C° 0.1 mm 3 mps 753 mmHg 86%
    11:00 +12°C° 0.1 mm 3 mps 753 mmHg 85%
    12:00 +13°C° 0.1 mm 3 mps 753 mmHg 84%
    13:00 +13°C° 0.1 mm 3 mps 753 mmHg 83%
    14:00 +13°C° 0.1 mm 3 mps 753 mmHg 82%
    15:00 +13°C° 0 mm 3 mps 752 mmHg 82%
    16:00 +14°C° 0 mm 3 mps 752 mmHg 83%
    17:00 +14°C° 0 mm 3 mps 752 mmHg 84%
    18:00 +13°C° 0 mm 3 mps 753 mmHg 86%
    19:00 +13°C° 0 mm 3 mps 753 mmHg 88%
    20:00 +12°C° 0 mm 3 mps 753 mmHg 90%
    21:00 +12°C° 0 mm 3 mps 753 mmHg 91%
    22:00 +11°C° 0 mm 3 mps 753 mmHg 92%
    23:00 +11°C° 0 mm 3 mps 753 mmHg 94%

    Day after tomorrow, 21 September, Thursday

    Time Temperature Precipitation Wind Pressure Humidity
    00:00 +11°C° 0 mm 3 mps 753 mmHg 94%
    01:00 +11°C° 0 mm 3 mps 753 mmHg 94%
    02:00 +10°C° 0 mm 3 mps 753 mmHg 94%
    03:00 +10°C° 0 mm 3 mps 753 mmHg 94%
    04:00 +10°C° 0 mm 3 mps 753 mmHg 94%
    05:00 +10°C° 0 mm 4 mps 753 mmHg 94%
    06:00 +10°C° 0 mm 4 mps 753 mmHg 92%
    07:00 +10°C° 0 mm 4 mps 753 mmHg 90%
    08:00 +10°C° 0 mm 4 mps 753 mmHg 89%
    09:00 +11°C° 0.1 mm 4 mps 753 mmHg 87%
    10:00 +12°C° 0.1 mm 4 mps 752 mmHg 85%
    11:00 +13°C° 0.1 mm 4 mps 752 mmHg 83%
    12:00 +13°C° 0.4 mm 4 mps 752 mmHg 85%
    13:00 +13°C° 0.4 mm 4 mps 752 mmHg 86%
    14:00 +13°C° 0.4 mm 4 mps 752 mmHg 88%
    15:00 +13°C° 0.1 mm 4 mps 752 mmHg 88%
    16:00 +13°C° 0.1 mm 5 mps 752 mmHg 89%
    17:00 +13°C° 0.1 mm 5 mps 752 mmHg 90%
    18:00 +13°C° 0 mm 5 mps 752 mmHg 91%
    19:00 +12°C° 0 mm 4 mps 752 mmHg 92%
    20:00 +12°C° 0 mm 4 mps 752 mmHg 93%
    21:00 +12°C° 0.3 mm 4 mps 752 mmHg 94%
    22:00 +12°C° 0.3 mm 4 mps 751 mmHg 94%
    23:00 +12°C° 0.3 mm 4 mps 751 mmHg 95%

    22 September, Friday

    Time Temperature Precipitation Wind Pressure Humidity
    00:00 +12°C° 0.5 mm 4 mps 751 mmHg 95%
    01:00 +13°C° 0.5 mm 4 mps 751 mmHg 95%
    02:00 +13°C° 0.5 mm 4 mps 751 mmHg 96%
    03:00 +13°C° 0.9 mm 4 mps 751 mmHg 96%
    04:00 +13°C° 0.9 mm 4 mps 751 mmHg 96%
    05:00 +14°C° 0.9 mm 4 mps 751 mmHg 97%
    06:00 +14°C° 0.3 mm 4 mps 751 mmHg 96%
    07:00 +14°C° 0.3 mm 4 mps 751 mmHg 95%
    08:00 +14°C° 0.3 mm 4 mps 751 mmHg 94%
    09:00 +15°C° 0 mm 4 mps 751 mmHg 90%
    10:00 +17°C° 0 mm 4 mps 752 mmHg 87%
    11:00 +19°C° 0 mm 5 mps 752 mmHg 83%
    12:00 +19°C° 0 mm 4 mps 752 mmHg 81%
    13:00 +20°C° 0 mm 4 mps 752 mmHg 78%
    14:00 +21°C° 0 mm 4 mps 752 mmHg 76%
    15:00 +21°C° 0 mm 4 mps 752 mmHg 78%
    16:00 +20°C° 0 mm 3 mps 752 mmHg 79%
    17:00 +20°C° 0 mm 3 mps 753 mmHg 81%
    18:00 +19°C° 0 mm 3 mps 753 mmHg 84%
    19:00 +18°C° 0 mm 3 mps 753 mmHg 88%
    20:00 +17°C° 0 mm 3 mps 753 mmHg 91%
    21:00 +17°C° 0 mm 3 mps 753 mmHg 91%
    22:00 +16°C° 0 mm 3 mps 754 mmHg 91%
    23:00 +16°C° 0 mm 3 mps 754 mmHg 92%

    23 September, Saturday

    Time Temperature Precipitation Wind Pressure Humidity
    00:00 +16°C° 0 mm 3 mps 754 mmHg 91%
    01:00 +14°C° 0 mm 4 mps 754 mmHg 90%
    02:00 +14°C° 0 mm 4 mps 754 mmHg 89%
    03:00 +14°C° 0 mm 4 mps 754 mmHg 88%
    04:00 +14°C° 0 mm 4 mps 754 mmHg 86%
    05:00 +13°C° 0 mm 4 mps 754 mmHg 85%
    06:00 +13°C° 0 mm 5 mps 754 mmHg 83%
    07:00 +13°C° 0 mm 5 mps 754 mmHg 81%
    08:00 +14°C° 0 mm 5 mps 755 mmHg 78%
    09:00 +15°C° 0 mm 5 mps 755 mmHg 75%
    10:00 +16°C° 0 mm 5 mps 755 mmHg 71%
    11:00 +17°C° 0 mm 5 mps 755 mmHg 67%
    12:00 +17°C° 0.1 mm 5 mps 755 mmHg 66%
    13:00 +19°C° 0.1 mm 5 mps 755 mmHg 66%
    14:00 +19°C° 0.1 mm 5 mps 755 mmHg 65%
    15:00 +17°C° 0.1 mm 5 mps 755 mmHg 69%
    16:00 +16°C° 0.1 mm 5 mps 755 mmHg 73%
    17:00 +16°C° 0.1 mm 5 mps 755 mmHg 77%
    18:00 +15°C° 0 mm 4 mps 756 mmHg 80%
    19:00 +14°C° 0 mm 4 mps 756 mmHg 82%
    20:00 +13°C° 0 mm 4 mps 756 mmHg 84%
    21:00 +13°C° 0 mm 4 mps 756 mmHg 85%
    22:00 +13°C° 0 mm 4 mps 756 mmHg 85%
    23:00 +12°C° 0 mm 4 mps 756 mmHg 86%

    24 September, Sunday

    Time Temperature Precipitation Wind Pressure Humidity
    00:00 +12°C° 0.1 mm 4 mps 756 mmHg 87%
    01:00 +12°C° 0.1 mm 4 mps 756 mmHg 87%
    02:00 +13°C° 0.1 mm 4 mps 756 mmHg 88%
    03:00 +12°C° 0.1 mm 4 mps 756 mmHg 90%
    04:00 +12°C° 0.1 mm 4 mps 756 mmHg 91%
    05:00 +12°C° 0.1 mm 4 mps 757 mmHg 93%
    06:00 +13°C° 0 mm 4 mps 757 mmHg 92%
    07:00 +13°C° 0 mm 5 mps 757 mmHg 91%
    08:00 +13°C° 0 mm 5 mps 757 mmHg 90%
    09:00 +14°C° 0 mm 5 mps 757 mmHg 87%
    10:00 +15°C° 0 mm 5 mps 758 mmHg 83%
    11:00 +16°C° 0 mm 5 mps 758 mmHg 80%
    12:00 +17°C° 0.2 mm 5 mps 758 mmHg 76%
    13:00 +19°C° 0.2 mm 6 mps 758 mmHg 72%
    14:00 +20°C° 0.2 mm 6 mps 758 mmHg 67%
    15:00 +20°C° 0.3 mm 5 mps 758 mmHg 70%
    16:00 +19°C° 0.3 mm 5 mps 758 mmHg 73%
    17:00 +19°C° 0.3 mm 5 mps 758 mmHg 75%
    18:00 +18°C° 0.2 mm 4 mps 758 mmHg 78%
    19:00 +15°C° 0.2 mm 4 mps 758 mmHg 82%
    20:00 +14°C° 0.2 mm 4 mps 759 mmHg 85%
    21:00 +14°C° 0 mm 4 mps 759 mmHg 85%
    22:00 +13°C° 0 mm 4 mps 759 mmHg 85%
    23:00 +13°C° 0 mm 4 mps 759 mmHg 84%
    Show more